Location: Black Swamp Observatory
(41.3920°N, 84.1250°W)
Time: 20:46:36
(UTC-05:00)

Altair - All Passes

Search period start: 27 January 2022 00:00
Search period end: 06 February 2022 00:00
Orbit: 1501 x 1683 km, 47.2° (Epoch: 27 January)

Date Brightness Start Highest point End Pass type
(mag) Time Alt. Az. Time Alt. Az. Time Alt. Az.
27 Jan - 01:50:41 10° WSW 02:00:39 89° SSE 02:10:54 10° ENE visible
27 Jan - 03:56:16 10° W 04:06:16 63° N 04:16:23 10° ENE visible
27 Jan - 06:01:53 10° WNW 06:12:08 79° NNE 06:22:16 10° ESE visible
27 Jan - 08:07:07 10° WNW 08:16:45 50° SW 08:26:12 10° SSE daylight
27 Jan - 10:16:00 10° W 10:19:42 13° WSW 10:23:22 10° SW daylight
27 Jan - 23:23:06 10° S 23:31:27 34° SE 23:40:02 10° ENE night (unlit)
28 Jan - 01:25:31 10° WSW 01:35:25 86° SSE 01:45:38 10° ENE visible
28 Jan - 03:30:58 10° W 03:40:58 64° N 03:51:06 10° ENE visible
28 Jan - 05:36:39 10° WNW 05:46:52 76° NNE 05:57:01 10° ESE visible
28 Jan - 07:41:51 10° WNW 07:51:36 54° SW 08:01:11 10° SSE daylight
28 Jan - 09:49:52 10° W 09:54:40 15° WSW 09:59:26 10° SSW daylight
28 Jan - 22:58:18 10° S 23:06:22 31° SE 23:14:39 10° ENE night (unlit)
29 Jan - 01:00:21 10° SW 01:10:12 82° SSE 01:20:23 10° ENE visible
29 Jan - 03:05:41 10° W 03:15:39 64° N 03:25:48 10° ENE visible
29 Jan - 05:11:24 10° WNW 05:21:35 74° NNE 05:31:44 10° ESE visible
29 Jan - 07:16:35 10° WNW 07:26:26 58° SW 07:36:09 10° SE visible
29 Jan - 09:23:59 10° W 09:29:38 17° WSW 09:35:13 10° SSW daylight
29 Jan - 22:33:34 10° S 22:41:17 28° SE 22:49:13 10° ENE night (unlit)
30 Jan - 00:35:12 10° SW 00:45:00 78° SSE 00:55:08 10° ENE visible
30 Jan - 02:40:24 10° W 02:50:21 65° N 03:00:30 10° ENE visible
30 Jan - 04:46:09 10° WNW 04:56:18 72° NNE 05:06:27 10° E visible
30 Jan - 06:51:19 10° WNW 07:01:16 62° SW 07:11:06 10° SE visible
30 Jan - 08:58:15 10° W 09:04:35 19° SW 09:10:51 10° SSW daylight
30 Jan - 22:08:52 10° S 22:16:13 25° SE 22:23:46 10° ENE night (unlit)
31 Jan - 00:10:05 10° SW 00:19:48 74° SSE 00:29:53 10° ENE night (unlit)
31 Jan - 02:15:07 10° W 02:25:03 67° N 02:35:12 10° ENE visible
31 Jan - 04:20:53 10° WNW 04:31:00 70° NNE 04:41:11 10° E visible
31 Jan - 06:26:04 10° WNW 06:36:05 66° SW 06:46:01 10° SE visible
31 Jan - 08:32:38 10° W 08:39:31 21° SW 08:46:21 10° S daylight
31 Jan - 21:44:14 10° S 21:51:10 23° SE 21:58:15 10° E night (unlit)
31 Jan - 23:44:59 10° SW 23:54:38 70° SE 00:04:37 10° ENE night (unlit)
01 Feb - 01:49:51 10° W 01:59:45 68° NNW 02:09:55 10° ENE visible
01 Feb - 03:55:38 10° WNW 04:05:43 68° NNE 04:15:52 10° E visible
01 Feb - 06:00:49 10° WNW 06:10:54 70° SW 06:20:54 10° SE visible
01 Feb - 08:07:05 10° W 08:14:27 23° SW 08:21:47 10° S daylight
01 Feb - 21:19:43 10° SSE 21:26:08 20° SE 21:32:41 10° E visible
01 Feb - 23:19:55 10° SW 23:29:27 65° SE 23:39:22 10° ENE night (unlit)
02 Feb - 01:24:35 10° W 01:34:28 69° NNW 01:44:38 10° ENE visible
02 Feb - 03:30:23 10° WNW 03:40:25 67° N 03:50:34 10° E visible
02 Feb - 05:35:35 10° WNW 05:45:42 74° SSW 05:55:46 10° SE visible
02 Feb - 07:41:36 10° WNW 07:49:23 26° SW 07:57:06 10° S daylight
02 Feb - 20:55:16 10° SSE 21:01:06 18° ESE 21:07:02 10° E visible
02 Feb - 22:54:51 10° SW 23:04:17 61° SE 23:14:06 10° ENE night (unlit)
03 Feb - 00:59:20 10° W 01:09:11 71° NNW 01:19:21 10° ENE visible
03 Feb - 03:05:07 10° WNW 03:15:06 65° N 03:25:15 10° E visible
03 Feb - 05:10:21 10° WNW 05:20:30 78° SSW 05:30:37 10° SE visible
03 Feb - 07:16:09 10° WNW 07:24:18 29° SW 07:32:23 10° S visible
03 Feb - 20:30:57 10° SSE 20:36:04 16° ESE 20:41:17 10° E visible
03 Feb - 22:29:50 10° SW 22:39:08 57° SE 22:48:49 10° ENE visible
04 Feb - 00:34:05 10° WSW 00:43:55 73° NNW 00:54:05 10° ENE night (unlit)
04 Feb - 02:39:51 10° WNW 02:49:49 64° N 02:59:56 10° E visible
04 Feb - 04:45:07 10° WNW 04:55:16 82° SSW 05:05:26 10° SE visible
04 Feb - 06:50:45 10° WNW 06:59:13 31° SW 07:07:37 10° S visible
04 Feb - 20:06:49 10° SSE 20:11:03 14° ESE 20:15:20 10° E visible
04 Feb - 22:04:50 10° SSW 22:14:00 53° SE 22:23:32 10° ENE visible
05 Feb - 00:08:51 10° WSW 00:18:39 76° NNW 00:28:48 10° ENE night (unlit)
05 Feb - 02:14:36 10° WNW 02:24:30 64° N 02:34:37 10° E visible
05 Feb - 04:19:54 10° WNW 04:30:03 86° SSW 04:40:14 10° ESE visible
05 Feb - 06:25:23 10° WNW 06:34:06 34° SW 06:42:48 10° SSE visible
05 Feb - 19:43:04 10° SE 19:46:02 12° ESE 19:49:02 10° ESE visible
05 Feb - 21:39:51 10° SSW 21:48:53 49° SE 21:58:15 10° ENE visible
